Location: College Park
(38.9810°N, 76.9370°W)
Time: 20:46:20
(UTC-05:00)

Vanguard 2 Rocket - All Passes

Search period start: 20 February 2018 00:00
Search period end: 02 March 2018 00:00
Orbit: 555 x 3327 km, 32.9° (Epoch: 19 February)

Date Brightness Start Highest point End Pass type
(mag) Time Alt. Az. Time Alt. Az. Time Alt. Az.
20 Feb - 02:07:16 10° W 02:24:34 70° S 02:44:31 10° ESE visible
20 Feb - 04:23:51 10° W 04:42:20 50° SSW 04:59:14 10° SE visible
20 Feb - 06:44:50 10° W 06:57:31 21° SW 07:08:23 10° S daylight
20 Feb - 20:43:20 10° S 20:51:28 28° SE 21:03:34 10° E visible
20 Feb - 22:53:34 10° SW 23:05:28 60° SSE 23:24:07 10° E visible
21 Feb - 01:07:00 10° W 01:22:34 72° S 01:42:58 10° ESE visible
21 Feb - 03:22:32 10° W 03:40:39 58° SSW 03:59:13 10° SE visible
21 Feb - 05:41:05 10° W 05:56:58 31° SW 06:10:54 10° SSE visible
21 Feb - 19:46:41 10° SSE 19:52:13 17° SE 19:59:30 10° E visible
21 Feb - 21:54:46 10° SW 22:04:54 50° SSE 22:21:25 10° E visible
22 Feb - 00:07:10 10° WSW 00:20:52 71° S 00:40:55 10° E visible
22 Feb - 02:21:45 10° W 02:38:45 64° SSW 02:58:30 10° ESE visible
22 Feb - 04:38:41 10° W 04:55:57 40° SW 05:12:12 10° SSE visible
22 Feb - 07:03:28 10° WSW 07:10:41 13° SW 07:17:22 10° SSW daylight
22 Feb - 20:56:30 10° SSW 21:04:57 37° SE 21:18:32 10° E visible
22 Feb - 23:07:46 10° WSW 23:19:35 66° SSE 23:38:30 10° E visible
23 Feb - 01:21:27 10° W 01:36:51 69° S 01:57:08 10° ESE visible
23 Feb - 03:37:09 10° W 03:54:31 49° SSW 04:12:35 10° SE visible
23 Feb - 05:57:16 10° W 06:10:16 22° SW 06:22:12 10° S visible
23 Feb - 19:58:55 10° S 20:05:33 25° SE 20:15:25 10° E visible
23 Feb - 22:08:46 10° SW 22:18:52 58° SSE 22:35:52 10° E visible
24 Feb - 00:21:36 10° W 00:35:10 71° S 00:55:12 10° ESE visible
24 Feb - 02:36:17 10° W 02:52:49 56° SSW 03:12:10 10° SE visible
24 Feb - 04:53:59 10° W 05:09:26 30° SW 05:24:25 10° SSE visible
24 Feb - 19:02:44 10° SSE 19:06:35 14° SE 19:11:22 10° ESE visible
24 Feb - 21:10:11 10° SW 21:18:43 47° SSE 21:33:10 10° E visible
24 Feb - 23:22:06 10° WSW 23:33:52 69° S 23:52:49 10° E visible
25 Feb - 01:35:58 10° W 01:51:05 63° SSW 02:11:02 10° ESE visible
25 Feb - 03:52:02 10° W 04:08:14 39° SW 04:25:22 10° SSE visible
25 Feb - 06:16:00 10° WSW 06:23:35 13° SW 06:30:54 10° SSW visible
25 Feb - 20:12:06 10° SSW 20:19:07 34° SE 20:30:28 10° E visible
25 Feb - 22:23:00 10° WSW 22:33:01 65° SSE 22:50:14 10° E visible
26 Feb - 00:36:04 10° W 00:49:29 67° S 01:09:18 10° ESE visible
26 Feb - 02:50:58 10° W 03:06:47 47° SSW 03:25:23 10° SE visible
26 Feb - 05:10:17 10° W 05:22:54 21° SW 05:35:25 10° S visible
26 Feb - 19:14:42 10° S 19:20:00 22° SE 19:27:37 10° E visible
26 Feb - 21:24:14 10° SW 21:32:43 56° SSE 21:47:37 10° E visible
26 Feb - 23:36:34 10° W 23:48:12 69° S 00:07:03 10° ESE visible
27 Feb - 01:50:32 10° W 02:05:13 54° SSW 02:24:35 10° SE visible
27 Feb - 04:07:27 10° W 04:21:53 29° SW 04:37:19 10° SSE visible
27 Feb - 18:19:28 10° SE 18:21:14 11° SE 18:23:10 10° ESE visible
27 Feb - 20:25:50 10° SW 20:32:56 44° SSE 20:45:06 10° E visible
27 Feb - 22:37:23 10° WSW 22:47:20 67° S 23:04:32 10° E visible
28 Feb - 00:50:36 10° W 01:03:45 60° SSW 01:23:07 10° ESE visible
28 Feb - 03:05:57 10° W 03:20:39 37° SSW 03:37:58 10° SSE visible
28 Feb - 05:29:23 10° WSW 05:36:25 13° SW 05:43:30 10° SSW visible
28 Feb - 19:27:53 10° SSW 19:33:40 30° SE 19:42:44 10° E visible
28 Feb - 21:38:30 10° WSW 21:46:56 62° SSE 22:01:59 10° E visible
28 Feb - 23:51:04 10° W 00:02:33 64° S 00:21:06 10° ESE visible
01 Mar - 02:05:17 10° W 02:19:17 45° SSW 02:37:38 10° SE visible
01 Mar - 04:23:57 10° W 04:35:33 20° SW 04:47:57 10° S visible
01 Mar - 18:30:41 10° S 18:34:45 18° SE 18:40:15 10° E visible
01 Mar - 20:39:55 10° SW 20:47:00 53° SSE 20:59:35 10° E visible
01 Mar - 22:51:51 10° W 23:01:42 66° S 23:18:45 10° ESE visible
